DateTimeUTC,F1_A11,F1_S11,BsB_S11,BsG_S11,BsR_S11,BbsB_S11,BbsG_S11,BbsR_S11,BaB_A11,BaG_A11,BaR_A11,Tu_S11,T_S11,Uu_S11,U_S11,P_S11,T1_A11
2021-04-23T02:00:00Z,00000200,21000000,,,,,,,-000.37,-000.31,-000.16,17.1,24.4,,00.0,0670.5,31.0
2021-04-23T02:01:00Z,00000200,21000000,,,,,,,0000.28,0000.29,0000.09,17.0,24.4,,00.0,0670.5,31.0
2021-04-23T02:02:00Z,00000200,21000000,,,,,,,-000.28,-000.19,-000.37,17.0,24.5,,00.0,0670.5,31.0
2021-04-23T02:03:00Z,00000200,61000000,,,,,,,0000.74,0000.33,0000.63,17.0,24.5,,00.0,0670.5,31.0
2021-04-23T02:04:00Z,00000200,41000000,0002.62,0001.84,0000.67,0000.10,0000.24,0000.01,0000.73,0001.12,0000.46,17.1,24.3,00.0,00.0,0671.4,31.0
2021-04-23T02:05:00Z,00000200,01000000,0002.14,0001.66,0000.96,-000.06,0000.08,0000.13,0001.06,0000.98,0000.61,17.2,24.2,00.1,00.1,0671.5,31.0
2021-04-23T02:06:00Z,00000200,01000000,0002.63,0001.41,0000.99,-000.21,0000.10,0000.08,0001.12,0000.70,0001.05,17.2,24.2,00.1,00.0,0671.5,31.0
2021-04-23T02:07:00Z,00000200,01000000,0002.03,0001.46,0001.00,0000.28,0000.03,0000.07,0001.06,0001.12,0000.68,17.3,24.2,00.1,00.1,0671.5,31.0
2021-04-23T02:08:00Z,00000200,01000000,0002.43,0001.99,0001.15,0000.50,0000.04,0000.31,0000.83,0000.55,0000.59,17.4,24.2,00.1,00.1,0671.5,31.0
2021-04-23T02:09:00Z,00000200,01000000,0002.26,0001.57,0001.22,0000.38,0000.01,0000.38,0001.15,0000.85,0000.93,17.4,24.3,00.1,00.1,0671.5,31.1
2021-04-23T02:10:00Z,00000200,01000000,0002.56,0001.73,0001.21,0000.45,-000.06,0000.20,0000.82,0000.72,0000.62,17.5,24.3,00.1,00.0,0671.5,31.1
2021-04-23T02:11:00Z,00000200,01000000,0003.23,0001.95,0001.00,-000.08,0000.11,0000.04,0001.14,0001.07,0000.19,17.5,24.3,00.1,00.1,0671.5,31.1
2021-04-23T02:12:00Z,00000200,01000000,0002.49,0001.54,0000.90,0000.75,0000.01,0000.08,0000.68,0000.88,0000.99,17.5,24.3,00.1,00.1,0671.5,31.1
2021-04-23T02:13:00Z,00000200,01000000,0002.93,0001.50,0001.17,0000.30,0000.29,0000.14,0000.87,0000.90,0000.33,17.5,24.3,00.1,00.0,0671.5,31.1
2021-04-23T02:14:00Z,00000200,01000000,0003.01,0001.63,0001.42,0000.75,0000.09,0000.27,0001.21,0000.92,0000.86,17.5,24.3,00.1,00.1,0671.5,31.0
2021-04-23T02:15:00Z,00000200,01000000,0002.61,0001.82,0001.15,0000.49,0000.14,0000.25,0000.92,0000.89,0000.56,17.4,24.3,00.1,00.0,0671.6,31.0
2021-04-23T02:16:00Z,00000200,01000000,0002.02,0002.10,0001.09,0000.57,-000.10,0000.25,0001.29,0001.06,0001.03,17.4,24.3,00.1,00.0,0671.6,31.0
2021-04-23T02:17:00Z,00000200,01000000,0002.58,0001.53,0001.42,0000.15,0000.07,0000.31,0000.81,0000.78,0000.85,17.4,24.2,00.1,00.0,0671.5,31.0
2021-04-23T02:18:00Z,00000200,01000000,0002.50,0001.85,0001.27,-000.06,0000.23,0000.26,0001.03,0000.85,0000.71,17.4,24.2,00.1,00.1,0671.5,31.0
2021-04-23T02:19:00Z,00000200,01000000,0003.34,0001.92,0001.45,0001.32,0000.23,0000.18,0000.99,0001.01,0000.41,17.4,24.3,00.1,00.1,0671.5,31.1
2021-04-23T02:20:00Z,00000200,01000000,0003.29,0001.87,0001.56,0000.44,0000.33,0000.30,0001.06,0000.80,0000.86,17.4,24.2,00.1,00.0,0671.5,31.0
2021-04-23T02:21:00Z,00000200,01000000,0002.22,0001.86,0001.19,0000.53,0000.08,0000.26,0001.28,0001.29,0000.71,17.4,24.2,00.1,00.1,0671.5,31.0
2021-04-23T02:22:00Z,00000200,01000000,0002.67,0002.05,0001.29,0000.17,0000.26,0000.22,0000.91,0000.98,0000.99,17.5,24.3,00.1,00.1,0671.5,31.0
2021-04-23T02:23:00Z,00000200,01000000,0002.41,0001.92,0001.09,0000.12,0000.10,0000.42,0000.99,0000.69,0000.25,17.5,24.3,00.1,00.1,0671.6,31.1
2021-04-23T02:24:00Z,00000200,01000000,0002.77,0001.72,0001.11,0000.59,0000.06,0000.05,0000.68,0000.92,0000.79,17.5,24.3,00.1,00.1,0671.6,31.0
2021-04-23T02:25:00Z,00000200,01000000,0002.46,0001.71,0000.84,-000.02,0000.20,0000.18,0000.76,0000.80,0000.56,17.6,24.3,00.1,00.0,0671.5,31.0
2021-04-23T02:26:00Z,00000200,01000000,0002.37,0001.68,0000.96,0000.79,0000.22,0000.36,0001.20,0000.76,0000.64,17.6,24.3,00.1,00.1,0671.6,31.1
2021-04-23T02:27:00Z,00000200,01000000,0002.75,0001.69,0001.20,0000.55,0000.04,0000.12,0000.66,0000.95,0000.75,17.6,24.3,00.1,00.1,0671.6,31.1
2021-04-23T02:28:00Z,00000200,01000000,0002.92,0001.71,0001.50,0000.36,0000.10,0000.27,0001.09,0000.78,0000.58,17.5,24.3,00.1,00.1,0671.6,31.1
2021-04-23T02:29:00Z,00000200,01000000,0002.13,0001.65,0001.37,0000.57,0000.13,0000.51,0001.21,0001.15,0000.84,17.5,24.3,00.0,00.0,0671.6,31.0
2021-04-23T02:30:00Z,00000200,01000000,0002.41,0001.56,0001.20,0000.69,0000.27,0000.22,0000.93,0000.33,0000.39,17.5,24.3,00.1,00.0,0671.6,31.0
2021-04-23T02:31:00Z,00000200,01000000,0002.45,0001.29,0000.89,0000.22,-000.01,-000.08,0000.49,0001.10,0000.63,17.5,24.3,00.1,00.1,0671.5,31.0
2021-04-23T02:32:00Z,00000200,01000000,0001.79,0001.06,0000.67,0000.19,-000.02,0000.08,0001.05,0000.70,0000.74,17.5,24.3,00.1,00.1,0671.5,31.0
2021-04-23T02:33:00Z,00000200,01000000,0001.81,0001.18,0000.90,0000.25,0000.14,0000.42,0001.04,0000.88,0000.90,17.4,24.3,00.1,00.1,0671.5,31.0
2021-04-23T02:34:00Z,00000200,01000000,0002.08,0001.48,0000.88,0000.51,0000.24,0000.24,0000.69,0000.57,0000.34,17.4,24.3,00.1,00.1,0671.5,31.0
2021-04-23T02:35:00Z,00000200,01000000,0002.18,0001.81,0001.05,0000.34,0000.25,0000.01,0000.52,0000.80,0000.26,17.4,24.3,00.1,00.0,0671.6,31.0
2021-04-23T02:36:00Z,00000200,01000000,0001.50,0001.67,0001.03,-000.08,0000.17,0000.14,0001.19,0000.61,0000.64,17.4,24.3,00.1,00.1,0671.5,31.0
2021-04-23T02:37:00Z,00000200,01000000,0002.30,0001.56,0000.95,0000.38,0000.32,0000.27,0000.74,0001.16,0000.94,17.5,24.3,00.1,00.0,0671.5,31.0
2021-04-23T02:38:00Z,00000200,01000000,0001.57,0001.50,0001.25,0000.19,0000.03,0000.10,0001.02,0000.63,0000.65,17.6,24.3,00.1,00.0,0671.6,31.1
2021-04-23T02:39:00Z,00000200,01000000,0002.69,0001.44,0001.10,0000.09,0000.02,0000.03,0001.04,0000.76,0000.61,17.6,24.3,00.1,00.0,0671.6,31.1
2021-04-23T02:40:00Z,00000200,01000000,0002.25,0001.37,0000.67,0000.40,-000.10,0000.05,0000.61,0000.88,0000.45,17.6,24.3,00.0,00.0,0671.6,31.1
2021-04-23T02:41:00Z,00000200,01000000,0002.32,0001.48,0000.94,0000.34,0000.12,0000.03,0000.91,0000.76,0000.68,17.6,24.3,00.1,00.0,0671.6,31.1
2021-04-23T02:42:00Z,00000200,01000000,0001.74,0001.54,0000.88,0000.22,-000.17,0000.16,0000.88,0000.98,0000.62,17.6,24.3,00.1,00.0,0671.5,31.0
2021-04-23T02:43:00Z,00000200,01000000,0001.93,0001.55,0001.05,0000.39,0000.12,0000.08,0001.25,0000.89,0000.60,17.6,24.3,00.1,00.1,0671.5,31.0
2021-04-23T02:44:00Z,00000200,01000000,0001.93,0001.38,0000.95,0000.22,-000.04,0000.01,0000.46,0000.29,0000.12,17.5,24.3,00.1,00.0,0671.6,31.0
2021-04-23T02:45:00Z,00000200,01000000,0002.29,0001.99,0000.81,0000.27,-000.08,0000.06,0000.59,0000.59,0000.74,17.5,24.3,00.1,00.0,0671.6,31.0
2021-04-23T02:46:00Z,00000200,01000000,0002.36,0001.56,0001.14,0000.38,0000.25,0000.11,0000.93,0001.03,0000.51,17.5,24.3,00.1,00.0,0671.6,31.0
2021-04-23T02:47:00Z,00000200,01000000,0002.10,0001.54,0000.83,0000.36,-000.10,0000.45,0000.95,0000.64,0000.61,17.5,24.3,00.1,00.0,0671.6,31.0
2021-04-23T02:48:00Z,00000200,01000000,0002.08,0001.50,0000.74,0000.67,0000.15,0000.21,0000.61,0000.91,0000.87,17.5,24.3,00.1,00.0,0671.6,31.0
2021-04-23T02:49:00Z,00000200,01000000,0002.28,0001.63,0000.95,0000.69,-000.02,0000.13,0000.72,0000.43,0000.37,17.5,24.3,00.1,00.1,0671.6,31.0
2021-04-23T02:50:00Z,00000200,01000000,0002.29,0001.34,0000.86,0000.21,0000.06,0000.32,0001.00,0000.61,0000.22,17.5,24.3,00.0,00.0,0671.7,31.0
2021-04-23T02:51:00Z,00000200,01000000,0001.48,0001.28,0000.57,0000.14,0000.05,0000.15,0000.69,0000.83,0000.64,17.4,24.3,00.1,00.0,0671.7,31.0
2021-04-23T02:52:00Z,00000200,01000000,0002.32,0001.16,0001.02,0000.49,0000.26,0000.34,0000.98,0000.61,0000.51,17.4,24.3,00.0,00.0,0671.7,31.0
2021-04-23T02:53:00Z,00000200,01000000,0002.28,0001.09,0000.44,0000.16,0000.22,-000.23,0000.61,0000.87,0000.60,17.4,24.3,00.0,00.0,0671.7,31.0
2021-04-23T02:54:00Z,00000200,01000000,0002.33,0001.07,0000.59,0000.41,0000.15,0000.39,0000.80,0000.57,0000.52,17.4,24.3,00.0,00.0,0671.7,31.0
2021-04-23T02:55:00Z,00000200,01000000,0002.04,0001.15,0000.69,0000.36,0000.13,0000.26,0000.59,0000.88,0000.52,17.4,24.3,00.1,00.0,0671.7,31.0
2021-04-23T02:56:00Z,00000200,01000000,0001.49,0000.98,0000.54,0000.49,0000.21,0000.03,0000.65,0000.42,0000.42,17.4,24.2,00.1,00.1,0671.7,31.0
2021-04-23T02:57:00Z,00000200,41000000,,,,,,,0000.56,0000.19,0000.55,17.4,24.3,00.3,00.2,0671.7,31.0
2021-04-23T02:58:00Z,00000200,61000000,,,,,,,-000.26,0000.06,-000.43,17.1,24.4,00.0,00.0,0670.7,31.0
2021-04-23T02:59:00Z,00000200,21000000,,,,,,,0000.18,-000.24,0000.18,17.1,24.5,,00.0,0670.6,31.0
